Weather in Russkaya Bektyashka

Russia / Ulyanovsk Oblast     53°46′03″N   48°50′53″E
temp.,
°C
wind,
m/s
gust,
m/s
humid.,
%
clouds,
%
prec.,
mm/h
press.,
hPa
HPBL,
m
11 may, tue
tue1101:00+14ne3374100 0.0 101943
04:00+14ne3370100 0.0 102146
07:00+15ene31170100 0.0 1022284
10:00+19se4754100 0.0 1024619
13:00+20se465096 0.0 10251041
16:00+22sse254777 0.0 10251394
19:00+17wsw347346 0.0 1026201
22:00+14wnw22845 0.0 102618
12 may, wed
wed1201:00+14ne228285 0.0 102624
04:00+13ene227983 0.0 102617
07:00+14ene2972100 0.0 1026262
10:00+18ese5957100 0.0 1027607
13:00+18ese5105480 0.0 1027665
16:00+21se584531 0.0 1026796
19:00+18sse2561100 0.0 1026196
22:00+15sse22676 0.0 102616
13 may, thu
thu1301:00+14ene226831 0.0 102613
04:00+12ene33735 0.0 102652
07:00+14e3116721 0.0 1025279
10:00+19se595074 0.0 1025659
13:00+22se3548100 0.0 1025864
16:00+19ne3460100 0.1 102495
19:00+20se31058100 0.0 1023375
22:00+17se3360100 0.0 102336
14 may, fri
fri1401:00+14se227347 0.1 102319
04:00+13se22735 0.3 102317
07:00+15se211665 0.0 1023297
10:00+21s69465 0.0 1023512
13:00+25s693628 0.0 1022996
16:00+27s693699 0.0 10221444
19:00+22s41152100 0.0 1022275
22:00+18s31156100 0.0 1022188
15 may, sat
sat1501:00+16s33575 0.0 102235
04:00+15s335641 0.0 102226
07:00+16s39595 0.0 1022220
10:00+22s57445 0.0 1021407
13:00+26s68315 0.0 10211089
16:00+27ssw583282 0.0 10201928
19:00
22:00+19s384851 0.0 1019116